When you browse on this site, cookies collect data to enhance your experience and personalize the content and advertising you see.
Visit our Privacy Policy to learn more. By continuing to use the site, you agree to this use of cookies and data.
  • In Schweiz
  • Länderverzeichnis
  • Für 7 Tage
  • Wassertemperatur
  • Wetterkarte
  • Widgets
  • user-avatar
    Anmelden

    Stündliche Wetter Turku

    Heute, 4 Juni, Donnerstag

    Zeit Temperatur Niederschläge Wind Luftdruck Luftfeuchtigkeit
    00:00 +9°C° 0 mm 2 m/S 755 mmHg 66%
    01:00 +8°C° 0 mm 2 m/S 755 mmHg 69%
    02:00 +9°C° 0 mm 2 m/S 754 mmHg 68%
    03:00 +9°C° 0 mm 3 m/S 754 mmHg 68%
    04:00 +10°C° 0 mm 3 m/S 754 mmHg 68%
    05:00 +12°C° 0 mm 3 m/S 754 mmHg 64%
    06:00 +13°C° 0 mm 3 m/S 753 mmHg 61%
    07:00 +16°C° 0 mm 2 m/S 753 mmHg 58%
    08:00 +17°C° 0 mm 2 m/S 753 mmHg 55%
    09:00 +18°C° 0 mm 2 m/S 753 mmHg 52%
    10:00 +20°C° 0 mm 2 m/S 752 mmHg 50%
    11:00 +20°C° 0.1 mm 2 m/S 752 mmHg 50%
    12:00 +20°C° 0.1 mm 2 m/S 752 mmHg 50%
    13:00 +20°C° 0.1 mm 2 m/S 752 mmHg 50%
    14:00 +18°C° 0.1 mm 2 m/S 751 mmHg 59%
    15:00 +17°C° 0.1 mm 2 m/S 751 mmHg 68%
    16:00 +15°C° 0.1 mm 2 m/S 750 mmHg 78%
    17:00 +15°C° 0 mm 2 m/S 750 mmHg 80%
    18:00 +15°C° 0 mm 1 m/S 750 mmHg 82%
    19:00 +15°C° 0 mm 1 m/S 749 mmHg 84%
    20:00 +14°C° 0 mm 1 m/S 749 mmHg 87%
    21:00 +14°C° 0 mm 1 m/S 748 mmHg 89%
    22:00 +13°C° 0 mm 1 m/S 748 mmHg 91%
    23:00 +13°C° 0 mm 2 m/S 748 mmHg 90%

    Morgen, 5 Juni, Freitag

    Zeit Temperatur Niederschläge Wind Luftdruck Luftfeuchtigkeit
    00:00 +13°C° 0 mm 2 m/S 747 mmHg 90%
    01:00 +11°C° 0 mm 3 m/S 747 mmHg 89%
    02:00 +12°C° 0.1 mm 3 m/S 746 mmHg 88%
    03:00 +12°C° 0.1 mm 3 m/S 746 mmHg 86%
    04:00 +13°C° 0.1 mm 2 m/S 745 mmHg 85%
    05:00 +13°C° 0 mm 2 m/S 745 mmHg 86%
    06:00 +13°C° 0 mm 2 m/S 745 mmHg 87%
    07:00 +13°C° 0 mm 2 m/S 745 mmHg 88%
    08:00 +14°C° 0 mm 2 m/S 745 mmHg 85%
    09:00 +15°C° 0 mm 2 m/S 745 mmHg 83%
    10:00 +15°C° 0 mm 1 m/S 745 mmHg 81%
    11:00 +16°C° 0.1 mm 1 m/S 745 mmHg 80%
    12:00 +16°C° 0.1 mm 2 m/S 745 mmHg 80%
    13:00 +16°C° 0.1 mm 2 m/S 745 mmHg 79%
    14:00 +16°C° 0 mm 2 m/S 746 mmHg 76%
    15:00 +17°C° 0 mm 2 m/S 746 mmHg 72%
    16:00 +17°C° 0 mm 2 m/S 746 mmHg 69%
    17:00 +17°C° 0 mm 2 m/S 746 mmHg 71%
    18:00 +16°C° 0 mm 1 m/S 746 mmHg 72%
    19:00 +15°C° 0 mm 1 m/S 746 mmHg 74%
    20:00 +14°C° 0 mm 2 m/S 746 mmHg 78%
    21:00 +13°C° 0 mm 2 m/S 746 mmHg 82%
    22:00 +11°C° 0 mm 3 m/S 747 mmHg 87%
    23:00 +11°C° 0 mm 3 m/S 746 mmHg 88%

    übermorgen, 6 Juni, Samstag

    Zeit Temperatur Niederschläge Wind Luftdruck Luftfeuchtigkeit
    00:00 +11°C° 0 mm 4 m/S 746 mmHg 89%
    01:00 +11°C° 0 mm 4 m/S 745 mmHg 91%
    02:00 +11°C° 0.2 mm 4 m/S 745 mmHg 90%
    03:00 +12°C° 0.2 mm 4 m/S 744 mmHg 89%
    04:00 +12°C° 0.2 mm 4 m/S 744 mmHg 89%
    05:00 +12°C° 0.5 mm 5 m/S 744 mmHg 89%
    06:00 +13°C° 0.5 mm 5 m/S 743 mmHg 89%
    07:00 +13°C° 0.5 mm 6 m/S 743 mmHg 90%
    08:00 +13°C° 0.1 mm 6 m/S 743 mmHg 90%
    09:00 +12°C° 0.1 mm 7 m/S 743 mmHg 90%
    10:00 +14°C° 0.1 mm 7 m/S 743 mmHg 90%
    11:00 +14°C° 0.1 mm 7 m/S 744 mmHg 84%
    12:00 +15°C° 0.1 mm 8 m/S 744 mmHg 78%
    13:00 +16°C° 0.1 mm 8 m/S 744 mmHg 72%
    14:00 +15°C° 0.5 mm 8 m/S 745 mmHg 74%
    15:00 +13°C° 0.5 mm 9 m/S 745 mmHg 77%
    16:00 +12°C° 0.5 mm 9 m/S 746 mmHg 80%
    17:00 +11°C° 0 mm 9 m/S 746 mmHg 78%
    18:00 +11°C° 0 mm 8 m/S 747 mmHg 77%
    19:00 +11°C° 0 mm 8 m/S 747 mmHg 75%
    20:00 +10°C° 0 mm 8 m/S 748 mmHg 78%
    21:00 +10°C° 0 mm 8 m/S 748 mmHg 80%
    22:00 +9°C° 0 mm 8 m/S 749 mmHg 82%
    23:00 +9°C° 0 mm 8 m/S 749 mmHg 83%

    7 Juni, Sonntag

    Zeit Temperatur Niederschläge Wind Luftdruck Luftfeuchtigkeit
    00:00 +9°C° 0 mm 7 m/S 749 mmHg 83%
    01:00 +9°C° 0 mm 7 m/S 750 mmHg 84%
    02:00 +9°C° 0 mm 7 m/S 750 mmHg 82%
    03:00 +10°C° 0 mm 8 m/S 751 mmHg 81%
    04:00 +10°C° 0 mm 8 m/S 751 mmHg 79%
    05:00 +11°C° 0 mm 8 m/S 752 mmHg 73%
    06:00 +12°C° 0 mm 8 m/S 752 mmHg 68%
    07:00 +13°C° 0 mm 8 m/S 752 mmHg 62%
    08:00 +15°C° 0 mm 8 m/S 753 mmHg 61%
    09:00 +16°C° 0 mm 8 m/S 754 mmHg 60%
    10:00 +16°C° 0 mm 8 m/S 754 mmHg 60%
    11:00 +16°C° 0 mm 7 m/S 754 mmHg 59%
    12:00 +17°C° 0 mm 7 m/S 755 mmHg 58%
    13:00 +17°C° 0 mm 6 m/S 755 mmHg 56%
    14:00 +16°C° 0 mm 6 m/S 755 mmHg 61%
    15:00 +16°C° 0 mm 6 m/S 755 mmHg 65%
    16:00 +15°C° 0 mm 6 m/S 755 mmHg 69%
    17:00 +14°C° 0.1 mm 5 m/S 755 mmHg 75%
    18:00 +14°C° 0.1 mm 4 m/S 755 mmHg 81%
    19:00 +13°C° 0.1 mm 3 m/S 755 mmHg 87%
    20:00 +12°C° 0.1 mm 3 m/S 755 mmHg 90%
    21:00 +12°C° 0.1 mm 3 m/S 755 mmHg 93%
    22:00 +13°C° 0.1 mm 2 m/S 755 mmHg 96%
    23:00 +12°C° 0 mm 2 m/S 755 mmHg 97%

    8 Juni, Montag

    Zeit Temperatur Niederschläge Wind Luftdruck Luftfeuchtigkeit
    00:00 +12°C° 0 mm 2 m/S 755 mmHg 97%
    01:00 +10°C° 0 mm 2 m/S 755 mmHg 98%
    02:00 +12°C° 0 mm 2 m/S 755 mmHg 97%
    03:00 +12°C° 0 mm 2 m/S 755 mmHg 96%
    04:00 +11°C° 0 mm 3 m/S 755 mmHg 94%
    05:00 +12°C° 0 mm 3 m/S 756 mmHg 87%
    06:00 +13°C° 0 mm 3 m/S 756 mmHg 79%
    07:00 +14°C° 0 mm 4 m/S 756 mmHg 71%
    08:00 +15°C° 0 mm 4 m/S 757 mmHg 67%
    09:00 +17°C° 0 mm 4 m/S 757 mmHg 62%
    10:00 +18°C° 0 mm 4 m/S 758 mmHg 58%
    11:00 +17°C° 0 mm 5 m/S 758 mmHg 59%
    12:00 +17°C° 0 mm 5 m/S 758 mmHg 59%
    13:00 +17°C° 0 mm 5 m/S 758 mmHg 60%
    14:00 +17°C° 0 mm 5 m/S 758 mmHg 62%
    15:00 +17°C° 0 mm 4 m/S 759 mmHg 63%
    16:00 +17°C° 0 mm 4 m/S 759 mmHg 65%
    17:00 +16°C° 0 mm 3 m/S 759 mmHg 69%
    18:00 +16°C° 0 mm 3 m/S 759 mmHg 73%
    19:00 +15°C° 0 mm 2 m/S 759 mmHg 77%
    20:00 +14°C° 0 mm 2 m/S 760 mmHg 82%
    21:00 +12°C° 0 mm 2 m/S 760 mmHg 87%
    22:00 +10°C° 0 mm 2 m/S 761 mmHg 92%
    23:00 +10°C° 0 mm 2 m/S 761 mmHg 92%

    9 Juni, Dienstag

    Zeit Temperatur Niederschläge Wind Luftdruck Luftfeuchtigkeit
    00:00 +11°C° 0 mm 1 m/S 761 mmHg 91%
    01:00 +11°C° 0 mm 1 m/S 761 mmHg 90%
    02:00 +11°C° 0 mm 1 m/S 761 mmHg 87%
    03:00 +12°C° 0 mm 1 m/S 761 mmHg 84%
    04:00 +12°C° 0 mm 1 m/S 762 mmHg 81%
    05:00 +14°C° 0 mm 1 m/S 762 mmHg 73%
    06:00 +16°C° 0 mm 1 m/S 762 mmHg 65%
    07:00 +19°C° 0 mm 1 m/S 762 mmHg 57%
    08:00 +21°C° 0 mm 1 m/S 762 mmHg 53%
    09:00 +22°C° 0 mm 1 m/S 763 mmHg 49%
    10:00 +24°C° 0 mm 1 m/S 763 mmHg 44%
    11:00 +24°C° 0 mm 2 m/S 763 mmHg 43%
    12:00 +24°C° 0 mm 2 m/S 763 mmHg 42%
    13:00 +24°C° 0 mm 3 m/S 763 mmHg 40%
    14:00 +24°C° 0 mm 3 m/S 762 mmHg 41%
    15:00 +24°C° 0 mm 3 m/S 762 mmHg 41%
    16:00 +23°C° 0 mm 4 m/S 762 mmHg 42%
    17:00 +22°C° 0 mm 4 m/S 762 mmHg 47%
    18:00 +20°C° 0 mm 3 m/S 762 mmHg 53%
    19:00 +19°C° 0 mm 3 m/S 762 mmHg 58%
    20:00 +17°C° 0 mm 3 m/S 762 mmHg 64%
    21:00 +16°C° 0 mm 2 m/S 762 mmHg 70%
    22:00 +14°C° 0 mm 2 m/S 763 mmHg 76%
    23:00 +14°C° 0 mm 2 m/S 763 mmHg 77%
    Mehr zeigen